Flight Track Log - Related Links

Times and Time Zones

All times are in EDT time to prevent confusion due to time zone crossing. See the NKS416 flight status page for this flight to view local times or setup timezone preferences in your user account.

Time Position Orientation Groundspeed Altitude Reporting Facility
EDT Latitude Longitude Course Direction KTS MPH feet Rate Location/Type
10:14PM 26.0750 -80.1297 93° East 163 188 1,200  Level Miami Center
10:14PM 26.0736 -80.1042 93° East 176 203 2,100 1,846 Climbing Miami Center
10:15PM 26.0772 -80.0328 87° East 263 303 4,000 2,154 Climbing Miami Center
10:15PM 26.0906 -80.0006 65° Northeast 258 297 4,900 3,000 Climbing Miami Center
10:16PM 26.1081 -79.9547 67° East 273 314 7,000 2,852 Climbing Miami Center
10:16PM 26.1233 -79.9250 60° Northeast 275 316 7,800 2,900 Climbing Miami Center
10:17PM 26.1411 -79.8722 69° East 289 333 9,900 2,542 Climbing Miami Center
10:17PM 26.1564 -79.8403 62° Northeast 298 343 10,300 1,139 Climbing Miami Center
10:18PM 26.2000 -79.7533 61° Northeast 347 399 11,400 1,700 Climbing Miami Center
10:19PM 26.2625 -79.6578 54° Northeast 367 422 13,700 2,017 Climbing Miami Center
10:20PM 26.3183 -79.5686 55° Northeast 386 444 15,400 1,647 Climbing Miami Center
10:27PM 26.8784 -79.0503 10° North 431 496 25,500 1,582 Climbing FlightAware ADS-B
10:27PM 26.9756 -79.0317 10° North 438 504 26,500 1,118 Climbing FlightAware ADS-B
10:28PM 27.0811 -79.0116 10° North 447 514 27,400 1,037 Climbing FlightAware ADS-B
10:29PM 27.1443 -78.9993 10° North 452 520 27,900 1,100 Climbing FlightAware ADS-B
10:29PM 27.2031 -78.9878 10° North 453 521 28,500 984 Climbing FlightAware ADS-B
10:30PM 27.2714 -78.9748 10° North 458 527 28,900 833 Climbing FlightAware ADS-B
10:31PM 27.3547 -78.9587 10° North 463 533 29,500 800 Climbing FlightAware ADS-B
10:31PM 27.4611 -78.9390 North 466 536 30,100 750 Climbing FlightAware ADS-B
10:32PM 27.5273 -78.9306 North 467 537 30,500 529 Climbing FlightAware ADS-B
10:32PM 27.6087 -78.9200 North 479 551 30,700 551 Climbing FlightAware ADS-B
10:34PM 27.7423 -78.9013 North 483 556 31,400 962 Climbing FlightAware ADS-B
10:35PM 27.9510 -78.8720 North 472 543 33,200 1,030 Climbing FlightAware ADS-B
10:36PM 28.0323 -78.8605 North 474 545 33,700 923 Climbing FlightAware ADS-B
10:36PM 28.1136 -78.8489 North 469 540 34,400 857 Climbing FlightAware ADS-B
10:37PM 28.1680 -78.8413 North 471 542 34,700 462 Climbing FlightAware ADS-B
10:38PM 28.2838 -78.8248 North 464 534 35,000 173 Climbing FlightAware ADS-B
10:39PM 28.4092 -78.8070 North 466 536 35,000 -56 Level FlightAware ADS-B
10:39PM 28.5089 -78.7961 North 463 533 34,900  Descending Miami Center
10:40PM 28.6406 -78.7794 North 463 533 35,000 50 Climbing Miami Center
10:41PM 28.7722 -78.7603 North 473 544 35,000  Level Miami Center
10:42PM 28.8997 -78.7389 North 467 537 35,000 -51 Level Miami Center
10:43PM 29.0314 -78.7222 North 467 537 34,900 -50 Descending Miami Center
10:44PM 29.1589 -78.7028 North 467 537 34,900 50 Level Miami Center
10:45PM 29.2928 -78.6861 North 460 529 35,000  Climbing Miami Center
10:47PM 29.4842 -78.6464 10° North 449 517 34,900 -40 Descending Jacksonville Center
10:48PM 29.6192 -78.6333 North 458 527 34,900  Level Jacksonville Center
10:49PM 29.7481 -78.6158 North 468 539 34,900 50 Level Jacksonville Center
10:50PM 29.8792 -78.6003 North 458 527 35,000 50 Climbing Jacksonville Center
10:51PM 30.0056 -78.5781 North 472 543 35,000 -50 Level Jacksonville Center
10:52PM 30.1383 -78.5553 North 472 543 34,900 -50 Descending Jacksonville Center
10:53PM 30.2697 -78.5444 North 477 549 34,900 50 Level Jacksonville Center
10:54PM 30.4067 -78.5239 North 477 549 35,000 50 Climbing Jacksonville Center
10:55PM 30.5375 -78.5058 North 477 549 35,000  Level Jacksonville Center
10:56PM 30.6681 -78.4803 10° North 477 549 35,000  Level Jacksonville Center
10:57PM 30.7989 -78.4597 North 477 549 35,000  Level Jacksonville Center
10:58PM 30.9381 -78.4389 North 477 549 35,000  Level Jacksonville Center
10:59PM 31.0628 -78.4208 North 482 555 35,000  Level Jacksonville Center
11:00PM 31.1953 -78.3950 North 476 548 35,000  Level Jacksonville Center
11:01PM 31.3219 -78.3744 North 469 540 35,000 -50 Level Jacksonville Center
11:02PM 31.4486 -78.3536 North 462 532 34,900 -50 Descending Jacksonville Center
11:03PM 31.5772 -78.3328 North 462 532 34,900 50 Level Jacksonville Center
11:04PM 31.7017 -78.3119 North 462 532 35,000  Climbing Jacksonville Center
11:05PM 31.8283 -78.2933 North 463 533 34,900 -50 Descending Jacksonville Center
11:06PM 31.9569 -78.2700 North 463 533 34,900 50 Level Jacksonville Center
11:07PM 32.0836 -78.2489 North 463 533 35,000 50 Climbing Jacksonville Center
11:08PM 32.1997 -78.2306 North 463 533 35,000  Level Jacksonville Center
11:09PM 32.3283 -78.2069 North 463 533 35,000  Level Jacksonville Center
11:10PM 32.4528 -78.1858 North 458 527 35,000  Level Jacksonville Center
11:12PM 32.7033 -78.1475 North 461 531 35,000 -33 Level Washington Center
11:13PM 32.8267 -78.1239 North 456 525 34,900 -50 Descending Washington Center
11:14PM 32.9544 -78.1078 North 456 525 34,900  Level Washington Center
11:15PM 33.0778 -78.0867 North 451 519 34,900 50 Level Washington Center
11:16PM 33.2033 -78.0656 North 451 519 35,000 50 Climbing Washington Center
11:17PM 33.3289 -78.0469 North 446 513 35,000  Level Washington Center
11:18PM 33.4525 -78.0258 North 446 513 35,000  Level Washington Center
11:19PM 33.5781 -78.0044 North 446 513 35,000 -50 Level Washington Center
11:20PM 33.7014 -77.9831 North 446 513 34,900  Descending Washington Center
11:21PM 33.8250 -77.9642 North 446 513 35,000 50 Climbing Washington Center
11:22PM 33.9611 -77.9406 North 446 513 35,000  Level Washington Center
11:23PM 34.0844 -77.9189 North 446 513 35,000  Level Washington Center
11:24PM 34.2081 -77.8997 North 446 513 35,000  Level Washington Center
11:25PM 34.3336 -77.8806 North 446 513 35,000  Level Washington Center
11:26PM 34.4481 -77.8889 357° North 429 494 35,000  Level Washington Center
11:27PM 34.5647 -77.9022 355° North 421 484 35,000  Level Washington Center
11:33PM 35.2145 -77.9723 354° North 415 478 35,000  Level FlightAware ADS-B
11:33PM 35.2936 -77.9810 354° North 419 482 35,000  Level FlightAware ADS-B
11:35PM 35.4904 -78.0028 354° North 418 481 35,000  Level FlightAware ADS-B
11:36PM 35.5782 -78.0126 354° North 416 479 35,000  Level FlightAware ADS-B
11:36PM 35.6547 -78.0214 354° North 417 480 35,000  Level FlightAware ADS-B
11:37PM 35.7219 -78.0293 354° North 417 480 35,000  Level FlightAware ADS-B
11:38PM 35.7946 -78.0375 354° North 416 479 35,000  Level FlightAware ADS-B
11:38PM 35.8857 -78.0477 354° North 417 480 35,000  Level FlightAware ADS-B
11:39PM 35.9535 -78.0555 354° North 419 482 35,000  Level FlightAware ADS-B
11:40PM 36.0511 -78.0686 354° North 421 484 35,000  Level Washington Center
11:46PM 36.7802 -78.1508 355° North 417 480 35,000  Level FlightAware ADS-B (KWWD)
11:47PM 36.8570 -78.1597 354° North 402 463 35,000  Level FlightAware ADS-B (KWWD)
11:53PM 37.5533 -78.2421 355° North 402 463 35,000  Level FlightAware ADS-B (KWWD)
11:54PM 37.6293 -78.2508 355° North 405 466 35,000  Level FlightAware ADS-B (KWWD)
11:54PM 37.6885 -78.2579 355° North 404 465 35,000  Level FlightAware ADS-B (KWWD)
11:55PM 37.7362 -78.2636 354° North 403 464 35,000  Level FlightAware ADS-B (KCHO)
11:55PM 37.8212 -78.2741 355° North 404 465 35,000  Level FlightAware ADS-B (KCHO)
11:56PM 37.8769 -78.2809 355° North 403 464 35,000  Level FlightAware ADS-B (KCHO)
11:56PM 37.9350 -78.2876 355° North 408 470 35,000  Level FlightAware ADS-B (KWWD)
11:57PM 38.0045 -78.2959 355° North 408 470 35,000  Level FlightAware ADS-B (KCHO)
11:58PM 38.0687 -78.3038 354° North 399 459 35,000  Level FlightAware ADS-B (KCHO)
11:58PM 38.1193 -78.3100 354° North 391 450 35,000  Level FlightAware ADS-B (KWWD)
11:59PM 38.1469 -78.3134 354° North 400 460 35,000  Level FlightAware ADS-B (KCHO)
11:59PM 38.2406 -78.3248 355° North 401 461 35,000  Level FlightAware ADS-B (KCHO)
12:00AM 38.2554 -78.3265 355° North 400 460 35,000  Level FlightAware ADS-B (KCHO)
12:00AM 38.3696 -78.3397 355° North 388 447 35,000  Level FlightAware ADS-B (KWWD)
12:01AM 38.4212 -78.3460 354° North 388 447 35,000  Level FlightAware ADS-B (KWWD)
12:02AM 38.5349 -78.3608 354° North 392 451 35,000  Level FlightAware ADS-B (KWWD)
12:04AM 38.7862 -78.3913 355° North 401 461 35,000  Level FlightAware ADS-B (KWWD)
12:06AM 39.0159 -78.4194 355° North 401 461 35,000  Level FlightAware ADS-B (KWWD)
12:07AM 39.0911 -78.4289 354° North 389 448 35,000  Level FlightAware ADS-B (KWWD)
12:08AM 39.1609 -78.4378 354° North 391 450 35,000  Level FlightAware ADS-B (KWWD)
12:08AM 39.2173 -78.4448 355° North 391 450 35,000  Level FlightAware ADS-B (KWWD)
12:09AM 39.3091 -78.4562 354° North 385 443 35,000  Level FlightAware ADS-B (KWWD)
12:10AM 39.3724 -78.4641 355° North 386 444 35,000  Level FlightAware ADS-B (KWWD)
12:10AM 39.4273 -78.4707 354° North 389 448 35,000  Level FlightAware ADS-B (KWWD)
12:11AM 39.4896 -78.4786 354° North 391 450 35,000  Level FlightAware ADS-B (KWWD)
12:11AM 39.5614 -78.4878 354° North 390 449 35,000  Level FlightAware ADS-B (KWWD)
12:12AM 39.6166 -78.4949 354° North 390 449 35,000  Level FlightAware ADS-B (KWWD)
12:12AM 39.6907 -78.5045 354° North 392 451 35,000  Level FlightAware ADS-B (KWWD)
12:13AM 39.7455 -78.5113 354° North 401 461 35,000  Level FlightAware ADS-B (KWWD)
12:13AM 39.8042 -78.5187 354° North 403 464 35,000  Level FlightAware ADS-B (KWWD)
12:14AM 39.8661 -78.5265 354° North 401 461 35,000  Level FlightAware ADS-B (KWWD)
12:15AM 39.9319 -78.5348 354° North 392 451 35,000  Level FlightAware ADS-B (KWWD)
12:15AM 39.9874 -78.5418 354° North 390 449 35,000  Level FlightAware ADS-B (KWWD)
12:16AM 40.0426 -78.5490 354° North 388 447 35,000  Level FlightAware ADS-B (KWWD)
12:20AM 40.5332 -78.6119 354° North 400 460 35,000  Level FlightAware ADS-B (KWWD)
12:22AM 40.6945 -78.6331 354° North 392 451 35,000  Level FlightAware ADS-B (KWWD)
12:22AM 40.7590 -78.6415 354° North 392 451 35,000  Level FlightAware ADS-B (KWWD)
12:23AM 40.8296 -78.6506 354° North 387 445 35,000 -122 Level FlightAware ADS-B (KWWD)
12:23AM 40.8482 -78.6530 355° North 396 456 34,900 -462 Descending FlightAware ADS-B (CYYZ)
12:23AM 40.8981 -78.6594 355° North 391 450 34,700 -522 Descending FlightAware ADS-B (CYYZ)
12:24AM 40.9733 -78.6694 354° North 385 443 34,300 -643 Descending FlightAware ADS-B (KWWD)
12:25AM 41.0963 -78.6853 355° North 375 432 33,500 -713 Descending FlightAware ADS-B (CYYZ)
12:26AM 41.1484 -78.6923 355° North 365 420 33,100 -876 Descending FlightAware ADS-B (CYYZ)
12:27AM 41.2478 -78.7060 355° North 358 412 32,200 -933 Descending FlightAware ADS-B (CYYZ)
12:27AM 41.2947 -78.7121 355° North 361 415 31,700 -984 Descending FlightAware ADS-B (CYYZ)
12:28AM 41.3471 -78.7190 355° North 359 413 31,200 -1,000 Descending FlightAware ADS-B (CYYZ)
12:28AM 41.3962 -78.7255 355° North 362 417 30,700 -1,000 Descending FlightAware ADS-B (CYYZ)
12:29AM 41.4426 -78.7317 355° North 364 419 30,200 -1,000 Descending FlightAware ADS-B (CYYZ)
12:29AM 41.4945 -78.7384 355° North 368 423 29,700 -1,100 Descending FlightAware ADS-B (CYYZ)
12:30AM 41.5479 -78.7457 354° North 377 434 29,100 -1,100 Descending FlightAware ADS-B (CYYZ)
12:30AM 41.6007 -78.7528 355° North 378 435 28,600 -1,017 Descending FlightAware ADS-B (CYYZ)
12:31AM 41.6527 -78.7594 355° North 376 433 28,100 -1,082 Descending FlightAware ADS-B (CYYZ)
12:31AM 41.7030 -78.7662 354° North 379 436 27,500 -1,100 Descending FlightAware ADS-B (CYYZ)
12:32AM 41.7569 -78.7736 354° North 378 435 27,000 -1,034 Descending FlightAware ADS-B (CYYZ)
12:32AM 41.8080 -78.7766 North 380 437 26,500 -1,100 Descending FlightAware ADS-B (CYYZ)
12:33AM 41.8614 -78.7729 North 382 440 25,900 -1,082 Descending FlightAware ADS-B (CYYZ)
12:33AM 41.9148 -78.7695 North 391 450 25,400 -1,180 Descending FlightAware ADS-B (CYYZ)
12:34AM 41.9697 -78.7659 North 394 453 24,700 -1,200 Descending FlightAware ADS-B (CYYZ)
12:34AM 42.0237 -78.7621 North 391 450 24,200 -1,119 Descending FlightAware ADS-B (CYYZ)
12:35AM 42.0785 -78.7585 North 391 450 23,600 -1,180 Descending FlightAware ADS-B (CYYZ)
12:35AM 42.1334 -78.7547 North 394 453 23,000 -1,500 Descending FlightAware ADS-B (CYYZ)
12:36AM 42.1878 -78.7511 North 387 445 22,100 -2,500 Descending FlightAware ADS-B (CYYZ)
12:36AM 42.2407 -78.7475 North 383 441 20,500 -3,200 Descending FlightAware ADS-B (CYYZ)
12:37AM 42.2925 -78.7438 North 376 433 18,900 -3,254 Descending FlightAware ADS-B (CYYZ)
12:37AM 42.3437 -78.7404 North 371 427 17,300 -3,246 Descending FlightAware ADS-B (CYYZ)
12:38AM 42.3961 -78.7369 North 371 427 15,600 -3,148 Descending FlightAware ADS-B (CYYZ)
12:38AM 42.4472 -78.7332 North 365 420 14,100 -3,356 Descending FlightAware ADS-B (CYYZ)
12:39AM 42.4967 -78.7297 North 366 421 12,300 -3,254 Descending FlightAware ADS-B (CYYZ)
12:39AM 42.5467 -78.7262 North 359 413 10,900 -2,300 Descending FlightAware ADS-B (CYYZ)
12:40AM 42.5960 -78.7227 North 351 404 10,000 -1,304 Descending FlightAware ADS-B (CYYZ)
12:40AM 42.6213 -78.7212 North 345 397 9,900 -343 Descending FlightAware ADS-B (CYYZ)
12:40AM 42.6503 -78.7193 North 320 368 9,800 -158 Descending FlightAware ADS-B (CYYZ)
12:41AM 42.6778 -78.7172 North 293 337 9,800  Level FlightAware ADS-B (CYYZ)
12:41AM 42.7039 -78.7149 North 270 311 9,800 -500 Level FlightAware ADS-B (CYYZ)
12:41AM 42.7225 -78.7131 North 264 304 9,500 -1,161 Descending FlightAware ADS-B (CYYZ)
12:42AM 42.7414 -78.7114 North 261 300 9,200 -1,400 Descending FlightAware ADS-B (CYYZ)
12:42AM 42.7586 -78.7102 North 258 297 8,800 -1,600 Descending FlightAware ADS-B (CYYZ)
12:42AM 42.7751 -78.7093 North 256 295 8,400 -1,548 Descending FlightAware ADS-B (CYYZ)
12:42AM 42.7950 -78.7084 North 255 293 8,000 -1,862 Descending FlightAware ADS-B (CYYZ)
12:42AM 42.8070 -78.7079 North 257 296 7,500 -1,600 Descending FlightAware ADS-B (CYYZ)
12:43AM 42.8302 -78.7068 North 255 293 7,200 -1,548 Descending FlightAware ADS-B (CYYZ)
12:43AM 42.8480 -78.7059 North 253 291 6,700 -2,357 Descending FlightAware ADS-B (CYYZ)
12:43AM 42.8627 -78.7052 North 253 291 6,100 -2,690 Descending FlightAware ADS-B (CYYZ)
12:43AM 42.8818 -78.7039 North 255 293 5,400 -2,903 Descending FlightAware ADS-B (CYYZ)
12:44AM 42.9000 -78.7028 North 259 298 4,600 -2,229 Descending FlightAware ADS-B (CYYZ)
12:44AM 42.9239 -78.7054 353° North 248 285 4,100 -1,024 Descending FlightAware ADS-B (CYYZ)
12:44AM 42.9465 -78.7093 353° North 239 275 3,900 -300 Descending FlightAware ADS-B (CYYZ)
12:45AM 42.9669 -78.7127 354° North 222 255 3,900 -222 Level FlightAware ADS-B (CYYZ)
12:45AM 42.9723 -78.7135 354° North 218 251 3,800 -1,315 Descending FlightAware ADS-B (CYYZ)
12:46AM 43.0333 -78.7167 354° North 218 251 2,300 -800 Descending Buffalo TRACON
12:47AM 43.0833 -78.7333 346° North 211 243 2,200 -52 Descending Buffalo TRACON
12:48AM 43.1167 -78.7833 312° West 151 174 2,200 -150 Level Buffalo TRACON
12:49AM 43.1167 -78.8333 270° West 112 129 1,900 -450 Descending Buffalo TRACON
12:50AM 43.1167 -78.8833 270° West 124 143 1,300 -264 Descending Buffalo TRACON
12:50AM 43.1081 -78.9053 242° Southwest 127 146 1,500 387 Climbing Cleveland Center
12:52AM 43.1000 -78.9333 270° West  Level FlightAware Approximate
12:59AM 43.1076 -78.9458 270° West  Level Estimated

Login

Don't have an account? Register now (free) for customized features, flight alerts, and more!